This demonstration page uses our WeatherBlox Daily Observations layout. Learn more.

Left ArrowRight Arrow

36.17497, -115.13722

Hourly Observations for September 26, 2015

Temp ( °F °C ) Dew Point ( °F °C ) Humidity (%) Winds ( mph kmh ) Pressure ( in mb ) Visibility ( mi km ) Precip ( " mm )
12:53 am 00:53 Clear 80 26.7 46 7.8 30 30 NW 6 9 29.88 1012 10 16 N/A
1:53 am 01:53 Clear 80 26.7 45 7.2 29 29 NNW 6 9 29.88 1012 10 16 N/A
2:53 am 02:53 Clear 80 26.7 46 7.8 30 30 WNW 3 6 29.87 1012 10 16 N/A
3:53 am 03:53 Clear 78 25.6 46 7.8 32 32 WNW 3 6 29.88 1012 10 16 N/A
4:53 am 04:53 Clear 76 24.4 45 7.2 33 33 NW 7 11 29.89 1012 10 16 N/A
5:53 am 05:53 Clear 76 24.4 45 7.2 33 33 N N/A 29.90 1012 10 16 N/A
6:53 am 06:53 Sunny 76 24.4 45 7.2 33 33 NW 6 9 29.92 1013 10 16 N/A
7:53 am 07:53 Sunny 80 26.7 44 6.7 28 28 NNE 5 7 29.94 1014 10 16 N/A
8:53 am 08:53 Sunny 84 28.9 42 5.6 23 23 ENE 5 7 29.95 1014 10 16 N/A
9:53 am 09:53 Sunny 87 30.6 44 6.7 22 22 NNE 3 6 29.96 1014 10 16 N/A
10:53 am 10:53 Sunny 90 32.2 44 6.7 20 20 N N/A 29.94 1014 10 16 N/A
11:53 am 11:53 Sunny 92 33.3 48 8.9 22 22 SSE 5 7 29.92 1013 10 16 N/A
12:53 pm 12:53 Sunny 94 34.4 49 9.4 21 21 VRB 3 6 29.90 1012 10 16 N/A
1:53 pm 13:53 Sunny 96 35.6 49 9.4 20 20 NNW 5 7 29.85 1011 10 16 N/A
2:53 pm 14:53 Sunny 97 36.1 48 8.9 19 19 SE 7 11 29.82 1010 10 16 N/A
3:53 pm 15:53 Sunny 98 36.7 47 8.3 17 17 SE 10 17 29.80 1009 10 16 N/A
4:53 pm 16:53 Sunny 99 37.2 41 5 14 14 S 12 19 29.78 1009 10 16 N/A
5:53 pm 17:53 Sunny 97 36.1 40 4.4 14 14 S 9 15 29.78 1009 10 16 N/A
6:53 pm 18:53 Clear 94 34.4 41 5 16 16 S 7 11 29.78 1009 10 16 N/A
7:53 pm 19:53 Clear 93 33.9 40 4.4 16 16 S 7 11 29.79 1009 10 16 N/A
8:53 pm 20:53 Clear 91 32.8 41 5 17 17 WSW 5 7 29.80 1009 10 16 N/A
9:53 pm 21:53 Clear 86 30 42 5.6 21 21 N N/A 29.80 1009 10 16 N/A
10:53 pm 22:53 Clear 85 29.4 40 4.4 20 20 N N/A 29.80 1009 10 16 N/A
11:53 pm 23:53 Clear 81 27.2 43 6.1 26 26 NNW 3 6 29.80 1009 10 16 N/A

Powered by AerisWeather